Temperature
11 11 11 11 11 11 11 11 10 10 10 10 10 10 10 10 10 10 10 10 10 9 9 9 9 9 9 9 9 9 9 9 9 9 9 9 9 9 9 9 9 9 9
10 10 10 10 10 10 10 10 10 10 10 10 10 10 10 10 10 10 10 9 9 9 9 9 9 9 9 9 9 9 9 9 9 9 9 9 9 9 9 9 9 9 9
10 10 10 10 10 10 10 10 10 9 9 9 9 10 10 10 9 9 9 9 9 9 9 9 8 8 8 8 8 8 8 8 8 8 8 8 8 8 8 8 8 8 8
9 9 9 9 9 9 9 9 9 9 9 9 9 9 9 9 9 9 9 9 9 9 9 9 8 8 8 8 8 8 8 8 8 8 8 8 8 8 8 8 8 8 8
9 9 9 9 9 9 9 9 9 9 8 8 9 9 8 8 8 8 8 8 8 8 8 8 8 8 8 8 7 7 7 7 7 7 7 7 7 7 7 7 7 7 8
9 9 9 8 8 8 8 8 8 8 8 8 8 8 8 8 8 8 8 8 8 8 8 8 8 8 8 8 7 7 7 7 7 7 7 7 7 7 7 7 7 7 7
8 8 8 8 8 8 8 8 8 8 8 7 7 7 7 7 7 7 7 7 7 7 7 7 7 7 7 7 7 7 7 6 6 6 6 6 6 6 6 6 6 6 7
8 8 8 8 8 8 8 7 7 7 7 7 7 6 6 7 7 7 7 7 7 7 7 7 6 7 7 7 7 7 6 6 6 6 6 6 6 6 6 6 6 6 6
7 7 7 7 7 7 7 7 7 7 7 7 6 6 6 6 6 6 7 7 6 6 6 6 6 6 6 6 6 6 6 6 6 6 6 6 6 6 6 5 5 5 6
7 7 7 7 7 7 7 7 7 6 6 6 6 6 6 5 5 5 6 6 6 6 6 6 6 6 6 6 6 6 6 5 5 5 5 5 5 5 5 5 5 5 5
7 7 7 7 6 6 6 6 6 6 6 6 5 5 5 5 5 4 5 5 6 6 5 5 5 5 5 5 5 5 5 5 5 5 5 5 5 5 5 5 5 5 5
7 7 6 6 6 6 6 6 6 5 5 5 5 5 5 4 4 4 4 4 5 5 5 5 5 5 5 5 5 5 5 5 5 5 5 5 4 4 4 4 4 4 4
7 6 6 6 6 6 6 5 5 5 5 5 5 4 4 4 4 4 3 3 4 4 4 5 5 5 5 5 4 4 4 4 4 4 4 4 4 4 4 4 4 4 4
6 6 6 6 5 5 5 5 5 5 4 4 4 4 4 4 4 3 3 3 3 3 3 4 4 4 4 4 4 4 4 4 4 4 4 4 4 4 3 3 3 3 3
6 6 5 5 5 5 5 4 4 4 4 4 4 4 3 3 3 3 3 2 2 2 2 3 3 4 4 4 4 4 3 3 3 3 3 3 3 3 3 3 3 3 3
5 5 5 5 5 5 4 4 4 4 4 4 3 3 3 3 3 3 2 2 2 2 1 2 3 3 3 3 3 3 3 3 3 3 3 3 3 3 3 3 3 3 2
5 5 5 4 4 4 4 4 4 3 3 3 3 3 3 3 2 2 2 2 1 1 1 2 2 2 2 2 3 3 2 3 3 3 2 2 3 2 2 2 2 2 2
4 4 4 4 4 4 4 4 3 3 3 3 3 3 3 2 2 2 2 2 1 1 1 1 2 2 2 2 2 2 2 2 2 2 2 2 2 2 2 2 2 2 2
4 4 4 4 4 4 3 3 3 3 3 3 2 2 2 2 2 2 1 1 1 1 1 1 1 1 1 2 2 2 2 2 2 2 1 1 1 1 1 1 1 1 1
4 4 4 3 3 3 3 3 2 2 2 2 2 2 2 1 1 1 1 1 1 1 1 1 1 1 1 1 1 1 1 1 1 1 1 1 1 1 1 1 1 1 1
3 3 3 3 3 3 2 2 2 2 2 2 2 1 1 1 1 1 1 1 1 1 0 0 0 0 0 0 0 0 0 0 1 1 1 1 1 1 1 1 1 1 1
3 3 3 3 3 2 2 2 2 1 1 1 1 1 1 1 1 0 0 0 0 0 -0 -0 -0 -0 -0 -0 -0 -1 -1 -1 -0 -0 0 0 0 0 0 0 0 0 0
2 2 2 2 2 2 2 2 1 1 1 1 1 1 1 0 0 0 0 -0 -0 -0 -0 -1 -1 -1 -1 -1 -1 -1 -1 -1 -1 -1 -1 -0 -0 -0 -0 -0 -0 -0 -0
2 2 2 2 2 2 1 1 1 1 0 0 0 0 0 0 -0 -0 -0 -0 -0 -0 -1 -1 -1 -1 -1 -1 -1 -1 -1 -1 -1 -1 -1 -1 -0 -0 -0 -0 -1 -1 -1
1 1 1 1 1 1 1 1 0 0 0 0 0 -0 -0 -0 -0 -1 -1 -1 -1 -1 -1 -1 -1 -1 -1 -2 -2 -2 -2 -2 -2 -2 -2 -2 -1 -1 -1 -1 -1 -1 -1
1 1 1 1 1 1 0 0 -0 -0 -1 -1 -0 -0 -1 -1 -1 -1 -1 -1 -1 -1 -1 -1 -1 -1 -2 -2 -2 -2 -2 -3 -3 -3 -2 -2 -2 -2 -2 -1 -1 -1 -1
Wind_Speed
3 2 2 3 3 3 2 2 2 2 2 2 2 2 2 2 2 2 3 3 3 3 4 4 4 4 4 4 4 4 5 5 5 6 6 6 6 6 5 5 5 6 6
3 2 2 2 2 2 1 1 1 1 1 1 1 2 1 1 1 2 3 4 4 5 5 5 6 6 6 6 5 5 5 6 6 6 7 7 6 6 6 6 6 6 6
4 3 2 1 1 1 2 2 2 2 1 1 1 2 1 1 1 2 2 3 4 5 6 6 6 6 7 6 6 6 6 7 7 7 7 7 6 6 6 6 6 7 7
4 4 2 1 1 2 2 1 1 1 1 1 1 2 2 2 2 2 2 2 3 4 5 5 6 6 6 7 7 7 7 7 8 7 7 7 7 6 7 6 6 7 7
4 4 2 1 2 2 1 1 1 1 0 1 1 2 2 1 2 2 2 2 2 2 3 4 5 6 6 7 7 8 7 7 8 8 8 8 8 7 7 7 7 7 7
3 3 2 2 2 2 1 1 1 1 1 0 1 2 2 2 1 1 1 2 2 3 3 3 4 5 6 7 7 8 8 8 8 9 9 9 9 8 8 8 8 8 8
3 3 2 2 2 2 2 2 2 1 1 1 1 2 2 1 1 1 1 1 2 3 3 2 2 3 4 6 7 8 8 8 8 8 9 9 9 9 8 9 8 8 9
4 3 3 2 2 2 2 2 2 1 0 1 1 1 2 2 1 1 1 1 2 2 2 3 2 3 4 4 6 7 8 9 9 9 10 10 10 9 9 9 9 9 9
4 4 4 3 3 3 3 3 3 3 1 0 1 1 1 2 3 2 1 2 2 2 2 3 3 3 4 4 5 7 8 9 9 10 11 11 10 9 9 9 9 9 9
3 3 4 4 3 3 2 3 3 2 3 1 0 0 1 1 1 2 2 2 2 2 3 3 3 4 4 4 6 8 8 9 9 10 11 11 11 10 10 10 10 10 10
2 3 3 3 3 3 3 3 2 2 2 2 2 1 0 0 0 1 4 4 3 2 3 3 3 4 4 5 6 8 9 9 9 10 10 11 12 11 11 11 11 10 10
1 2 3 3 3 3 3 3 3 2 2 2 2 2 2 1 1 1 3 4 5 4 3 3 3 3 5 5 7 9 9 9 10 10 10 11 11 11 11 11 11 11 11
2 3 3 3 3 3 3 3 3 3 3 2 3 2 2 2 2 2 2 3 4 4 3 3 3 4 4 5 7 9 9 9 9 9 10 10 10 11 11 11 11 11 11
4 4 4 3 3 3 3 3 2 3 3 3 3 3 2 2 2 2 2 2 3 4 3 4 3 3 4 6 7 8 8 9 9 9 10 10 10 10 11 11 11 12 12
3 3 4 4 3 4 4 4 3 3 3 3 3 3 2 2 2 2 2 3 3 4 5 4 3 3 5 6 7 7 7 8 8 9 10 10 10 10 10 11 11 11 11
3 3 3 4 3 3 4 4 3 3 3 3 3 3 3 2 2 2 2 2 3 4 5 3 3 4 5 6 7 7 7 8 7 8 9 9 9 9 10 10 10 11 11
4 4 4 4 4 4 4 3 3 4 4 3 3 3 4 3 2 2 2 2 3 4 7 6 4 4 4 4 5 6 6 6 6 8 9 10 9 9 10 10 11 11 12
4 4 4 4 4 4 4 4 4 4 4 4 4 4 4 3 3 3 3 3 4 4 5 7 5 3 3 3 3 4 5 5 6 8 9 10 9 9 10 11 11 11 12
3 3 3 4 4 4 4 4 4 4 4 4 4 5 4 4 4 4 4 4 4 4 4 5 6 3 2 2 3 4 4 4 5 7 8 9 10 10 10 11 11 11 11
3 3 3 4 4 3 4 4 4 4 4 4 4 4 4 5 6 5 4 5 4 4 4 4 4 4 3 2 1 3 4 4 4 5 6 8 9 10 10 11 11 11 11
3 3 3 3 3 3 4 4 4 4 3 3 3 4 4 5 6 5 4 4 4 4 3 4 4 4 3 2 2 2 4 4 4 2 4 5 5 5 7 9 10 11 10
2 2 2 3 3 3 4 5 4 3 3 4 4 4 4 5 6 7 8 7 6 5 5 4 4 4 5 4 3 3 3 4 4 2 3 5 3 4 5 6 9 10 10
2 2 2 2 3 4 5 5 5 3 3 4 4 3 3 4 4 4 6 7 7 8 8 6 6 6 6 5 4 3 3 4 5 4 3 4 3 5 5 8 10 9 9
2 2 2 2 2 3 5 5 4 2 3 4 4 4 4 4 4 4 3 4 4 5 6 6 6 6 6 5 4 4 4 4 5 3 2 4 3 4 6 6 8 9 10
2 2 2 2 3 4 5 5 3 1 2 3 4 4 4 5 7 6 4 4 5 5 6 7 8 7 7 7 5 2 2 3 4 3 1 2 3 4 4 4 6 9 10
3 2 2 2 3 4 5 5 4 1 2 3 3 3 6 6 7 6 4 4 6 5 3 3 4 5 5 5 5 4 3 3 3 3 2 1 2 2 3 3 3 5 6
Wind_Direction
112 91 72 61 56 64 74 76 79 68 59 48 37 30 8 359 350 349 343 351 342 328 320 313 306 304 299 298 303 308 308 309 311 304 309 302 307 305 307 308 309 308 310
129 116 96 83 61 64 87 94 112 103 64 46 26 15 360 354 356 344 337 334 335 327 317 310 305 303 301 298 297 299 303 307 308 304 303 298 298 299 301 303 305 303 305
138 129 125 114 82 74 79 83 80 83 73 38 2 3 17 9 344 334 328 326 325 328 317 308 306 304 300 300 299 302 303 304 309 303 302 294 286 292 295 299 301 305 303
146 136 134 144 110 103 99 115 107 80 50 19 341 334 355 7 350 330 329 331 331 331 328 319 315 311 306 305 304 303 303 307 308 308 305 300 287 286 287 292 297 302 303
155 142 145 150 125 111 117 137 109 114 98 349 329 339 341 331 327 336 356 350 340 335 335 330 330 324 319 316 313 308 303 306 309 308 306 303 295 286 282 286 291 294 297
157 143 134 134 124 126 130 136 138 96 121 163 357 347 329 314 338 346 331 344 344 338 338 334 330 327 328 324 315 313 306 303 306 309 307 308 300 287 286 287 288 292 292
161 147 141 134 138 161 172 160 142 113 61 51 43 348 328 317 314 312 334 355 351 332 330 330 327 327 324 323 319 316 310 307 305 307 311 311 303 296 289 286 288 291 289
168 167 163 158 169 169 157 152 143 142 76 65 98 25 330 326 322 308 310 305 316 334 324 310 312 319 322 323 318 320 312 306 303 304 306 309 305 302 298 293 290 290 294
183 178 174 169 179 182 189 189 175 167 180 238 95 139 166 251 308 310 298 303 309 300 299 304 300 300 307 316 313 315 316 306 302 303 304 307 302 297 298 301 304 304 298
188 187 179 179 181 179 189 204 192 185 167 183 211 47 184 176 231 304 311 307 297 289 290 305 300 294 300 304 303 309 309 306 302 301 302 305 304 297 294 296 297 297 298
185 188 182 178 186 188 186 184 194 191 181 181 178 185 198 21 193 235 288 307 309 285 278 278 282 286 288 292 294 302 303 299 301 302 303 303 303 303 297 292 291 291 292
186 195 189 186 195 196 193 193 187 194 203 193 191 183 180 187 214 224 262 290 296 296 290 273 266 273 279 285 290 302 302 297 295 297 302 305 303 304 306 300 294 290 289
206 210 196 194 200 204 201 191 185 199 197 196 207 218 212 217 209 214 240 279 291 294 296 284 263 269 278 286 288 296 299 298 296 298 302 305 303 303 304 303 303 298 294
210 199 192 196 202 202 199 188 195 210 199 202 216 218 224 235 222 215 211 241 292 296 288 278 284 263 277 284 284 296 295 293 296 301 303 303 303 304 303 301 300 301 298
195 186 189 194 199 197 194 185 200 212 206 211 214 215 226 236 230 227 218 212 225 278 285 271 276 286 296 288 289 291 288 286 295 298 300 300 302 304 304 302 300 299 300
182 181 193 195 196 194 192 192 203 209 206 222 217 211 229 235 227 222 223 227 224 237 266 272 269 291 302 300 299 297 287 293 297 301 302 301 302 304 305 305 303 299 297
187 191 197 200 203 205 199 197 210 206 209 224 224 219 233 226 225 230 230 231 235 236 258 277 273 287 288 289 310 310 301 296 296 303 303 302 301 303 305 303 302 300 298
199 194 192 199 207 208 203 201 210 212 213 224 229 227 239 234 231 234 232 237 242 241 249 274 286 289 278 289 305 305 311 305 298 301 305 305 304 305 304 303 301 299 297
203 196 189 200 211 213 212 212 211 214 220 225 226 229 236 229 239 242 236 237 244 251 248 263 282 283 282 294 313 308 308 305 307 305 305 307 305 304 304 302 302 300 297
196 202 200 203 210 215 215 214 215 219 224 232 235 236 238 234 237 239 240 237 239 247 252 260 273 281 278 282 297 307 317 313 307 309 307 307 302 302 302 300 300 300 300
199 201 194 199 204 211 213 209 214 219 221 235 243 245 246 247 246 247 248 238 228 236 246 255 265 279 280 290 286 284 298 308 302 288 307 307 305 304 302 299 297 299 299
187 187 196 202 213 227 228 225 223 219 223 230 244 255 254 254 259 264 262 253 236 232 236 240 251 263 267 263 264 273 288 311 302 300 312 300 299 295 298 292 297 299 301
187 194 206 208 225 236 236 236 229 221 230 238 241 250 262 262 266 265 265 265 259 250 241 232 241 249 257 252 253 264 267 274 273 286 304 285 287 286 293 292 299 301 308
191 204 216 222 241 253 249 240 239 223 232 240 241 241 247 257 256 256 247 259 261 258 254 243 238 246 248 251 242 243 253 270 275 273 267 272 286 287 301 299 300 306 314
200 212 218 220 240 264 258 242 245 222 242 256 256 254 250 253 260 255 238 251 266 267 262 253 252 258 264 265 255 243 254 279 287 281 242 266 285 298 290 287 302 310 312
205 213 231 231 237 255 257 248 246 222 244 267 274 264 258 260 265 261 236 238 258 263 262 267 263 265 264 263 261 236 230 251 277 276 245 270 281 317 306 290 303 314 314
Height
1515 1516 1517 1517 1518 1519 1520 1521 1521 1522 1522 1523 1523 1524 1524 1524 1525 1525 1525 1525 1526 1526 1526 1526 1526 1525 1525 1525 1525 1524 1524 1523 1523 1522 1522 1521 1521 1520 1520 1520 1520 1519 1519
1513 1513 1514 1515 1516 1517 1518 1518 1519 1520 1520 1521 1521 1521 1522 1522 1522 1523 1523 1523 1523 1523 1523 1523 1523 1523 1522 1522 1522 1522 1521 1520 1520 1519 1519 1518 1518 1518 1517 1517 1517 1516 1516
1510 1511 1512 1512 1513 1514 1515 1516 1517 1518 1518 1518 1519 1519 1519 1520 1520 1520 1520 1521 1521 1521 1521 1520 1520 1520 1520 1519 1519 1519 1518 1518 1517 1517 1516 1516 1515 1515 1514 1514 1514 1514 1513
1508 1509 1509 1510 1511 1512 1513 1514 1514 1515 1515 1516 1516 1516 1517 1517 1517 1518 1518 1518 1518 1518 1518 1518 1517 1517 1516 1516 1516 1516 1515 1515 1514 1514 1513 1513 1512 1512 1512 1511 1510 1510 1510
1505 1506 1507 1508 1509 1510 1511 1511 1512 1512 1513 1513 1513 1513 1514 1514 1515 1515 1515 1515 1515 1515 1515 1515 1514 1513 1513 1513 1513 1512 1512 1512 1511 1511 1510 1509 1509 1509 1508 1508 1507 1507 1507
1503 1504 1505 1505 1506 1507 1508 1508 1509 1509 1510 1511 1511 1511 1511 1511 1512 1512 1512 1512 1512 1512 1512 1511 1511 1510 1510 1509 1509 1509 1509 1508 1508 1507 1507 1506 1506 1505 1505 1504 1504 1503 1503
1500 1501 1502 1503 1504 1505 1505 1506 1506 1507 1507 1508 1508 1508 1508 1508 1508 1509 1509 1509 1509 1509 1509 1508 1508 1507 1507 1506 1506 1505 1505 1505 1504 1504 1504 1503 1503 1502 1501 1501 1500 1500 1500
1497 1498 1499 1500 1501 1502 1502 1503 1503 1504 1504 1505 1506 1506 1505 1506 1505 1506 1506 1506 1506 1506 1505 1505 1505 1504 1503 1503 1502 1502 1501 1501 1501 1501 1500 1499 1499 1498 1498 1497 1497 1496 1496
1494 1495 1496 1498 1499 1499 1500 1500 1501 1501 1501 1502 1503 1505 1504 1503 1502 1502 1502 1502 1502 1502 1502 1502 1501 1500 1500 1499 1498 1498 1497 1497 1497 1497 1496 1496 1495 1495 1494 1493 1493 1492 1492
1491 1492 1493 1494 1495 1496 1497 1498 1498 1498 1499 1499 1500 1501 1502 1501 1501 1499 1499 1499 1499 1499 1498 1498 1497 1497 1496 1495 1495 1494 1494 1493 1493 1493 1492 1492 1491 1490 1490 1489 1489 1488 1487
1488 1489 1490 1491 1492 1493 1494 1494 1495 1495 1495 1496 1497 1497 1498 1498 1498 1498 1495 1495 1495 1495 1494 1494 1493 1493 1492 1492 1491 1490 1489 1489 1489 1488 1488 1487 1487 1486 1486 1485 1484 1483 1483
1485 1486 1487 1488 1489 1490 1490 1491 1491 1492 1492 1493 1493 1494 1494 1494 1494 1495 1493 1491 1491 1491 1490 1490 1489 1489 1488 1488 1487 1486 1485 1485 1484 1484 1483 1482 1482 1481 1481 1480 1479 1478 1478
1481 1483 1484 1485 1486 1486 1487 1487 1488 1488 1489 1489 1490 1490 1491 1491 1491 1491 1490 1489 1487 1486 1486 1486 1485 1485 1484 1483 1482 1482 1481 1480 1480 1479 1478 1478 1477 1476 1476 1475 1474 1473 1473
1478 1480 1480 1481 1482 1483 1484 1484 1484 1484 1485 1485 1486 1486 1487 1487 1487 1487 1487 1487 1484 1482 1481 1481 1481 1481 1481 1480 1478 1477 1477 1476 1475 1474 1473 1473 1472 1471 1470 1470 1469 1468 1467
1475 1476 1477 1478 1479 1479 1480 1480 1480 1481 1481 1482 1482 1483 1483 1483 1483 1483 1483 1484 1483 1480 1477 1476 1477 1477 1476 1475 1474 1473 1472 1471 1470 1469 1468 1468 1467 1466 1465 1464 1463 1462 1462
1471 1472 1473 1474 1475 1475 1476 1476 1477 1477 1477 1478 1478 1478 1479 1479 1479 1479 1479 1479 1479 1478 1475 1472 1473 1473 1472 1471 1470 1469 1468 1467 1466 1465 1464 1462 1462 1461 1460 1459 1458 1457 1457
1467 1468 1469 1470 1471 1471 1472 1472 1473 1473 1474 1474 1474 1474 1474 1475 1475 1475 1475 1475 1474 1474 1471 1469 1469 1469 1468 1467 1466 1465 1464 1463 1462 1461 1459 1458 1457 1456 1455 1454 1453 1452 1451
1463 1464 1465 1466 1467 1467 1468 1468 1469 1470 1470 1470 1470 1470 1470 1470 1470 1471 1470 1470 1470 1470 1468 1465 1464 1464 1463 1463 1462 1461 1459 1459 1458 1456 1455 1454 1452 1451 1450 1449 1448 1447 1446
1460 1460 1461 1462 1463 1464 1464 1465 1466 1466 1466 1466 1466 1466 1466 1466 1466 1466 1466 1466 1466 1465 1464 1463 1461 1460 1459 1459 1457 1456 1455 1454 1453 1452 1451 1449 1448 1447 1445 1444 1443 1442 1440
1456 1456 1457 1458 1459 1460 1460 1461 1462 1462 1462 1462 1462 1462 1462 1462 1462 1462 1462 1462 1462 1461 1460 1459 1458 1457 1456 1455 1454 1452 1450 1450 1449 1448 1447 1445 1444 1442 1441 1440 1438 1437 1435
1452 1453 1453 1454 1455 1456 1456 1457 1457 1458 1458 1458 1458 1458 1458 1458 1458 1458 1458 1458 1457 1457 1456 1455 1454 1453 1452 1451 1450 1448 1447 1445 1444 1444 1442 1441 1439 1438 1437 1435 1433 1432 1430
1448 1449 1450 1451 1451 1452 1453 1453 1454 1454 1454 1454 1453 1453 1454 1454 1454 1454 1454 1453 1453 1453 1452 1451 1450 1449 1448 1448 1447 1446 1444 1442 1440 1440 1438 1436 1436 1434 1432 1431 1429 1428 1426
1444 1445 1446 1447 1448 1448 1449 1449 1449 1450 1450 1449 1449 1449 1449 1449 1449 1449 1449 1449 1448 1448 1448 1448 1446 1445 1445 1445 1444 1442 1441 1439 1438 1437 1435 1432 1431 1429 1428 1427 1425 1424 1422
1440 1441 1442 1443 1444 1444 1445 1445 1445 1445 1445 1445 1445 1445 1445 1445 1445 1445 1444 1444 1444 1443 1443 1443 1442 1442 1441 1441 1440 1439 1438 1436 1434 1433 1432 1428 1426 1425 1424 1423 1421 1420 1418
1437 1438 1438 1439 1440 1440 1441 1441 1441 1441 1440 1441 1441 1441 1441 1441 1440 1440 1440 1439 1439 1438 1438 1438 1438 1438 1437 1437 1436 1435 1433 1432 1429 1428 1428 1425 1422 1421 1419 1418 1417 1416 1414
1433 1434 1435 1436 1436 1436 1437 1437 1437 1437 1436 1436 1437 1437 1437 1436 1436 1436 1435 1435 1434 1433 1433 1433 1433 1433 1433 1432 1431 1431 1430 1428 1426 1424 1423 1422 1420 1418 1415 1413 1413 1412 1410